Weather History for Shannon, Ireland

Change the Weather History Date:

Saturday, February 9, 2013

  Actual Average Record
Temperature  
Mean Temperature 45 °F -  
Max Temperature 49 °F 48 °F 57 °F (2008)
Min Temperature 41 °F 37 °F 28 °F (1999)
Degree Days  
Heating Degree Days 20    
Moisture  
Dew Point 44 °F    
Average Humidity 94    
Maximum Humidity 100    
Minimum Humidity 87    
Precipitation  
Precipitation 0.24 in 0.09 in - ()
Sea Level Pressure  
Sea Level Pressure 30.01 in    
Wind  
Wind Speed 6 mph ()    
Max Wind Speed 12 mph    
Max Gust Speed -    
Visibility 6.0 miles    
Events Rain    
Averages and records for this station are not official NWS values.
T = Trace of Precipitation, MM = Missing Value Source: Averaged Metar Reports

Daily Weather History Graph

Daily Weather History Graph

Search for Another Location

Airport:

Trip Planner

Search our weather history database for the weather conditions in past years. The results will help you decide how hot, cold, wet, or windy it might be!

Date:

Astronomy

Feb. 09, 2013 Rise Set
Actual Time 8:03 AM GMT 5:36 PM GMT
Civil Twilight 7:27 AM GMT 6:13 PM GMT
Nautical Twilight 6:47 AM GMT 6:53 PM GMT
Astronomical Twilight 6:07 AM GMT 7:33 PM GMT
Moon 7:06 AM GMT (2/9) 5:06 PM GMT (2/9)
Length of Visible Light 10h 45m
Length of Day
9h 33m
Waning Crescent, 1% of the Moon is Illuminated
Feb 9
Waning Crescent
Feb 10
New
Feb 17
First Quarter
Feb 25
Full
Mar 4
Last Quarter

Hourly Weather History & Observations

Time (GMT) Temp. Windchill Dew Point Humidity Pressure Visibility Wind Dir Wind Speed Gust Speed Precip Events Conditions
12:00 AM 44 °F - 42 °F 89% 30.27 in 9 mi South 4.5 mph - -   Mostly Cloudy
12:00 AM 42.8 °F 41.1 °F 42.8 °F 100% 30.24 in 6.2 mi South 3.5 mph - N/A   Mostly Cloudy
12:30 AM 42.8 °F 38.6 °F 41.0 °F 93% 30.24 in 6.2 mi SSW 6.9 mph - N/A   Mostly Cloudy
1:00 AM 42.8 °F 38.6 °F 41.0 °F 93% 30.24 in 6.2 mi SSW 6.9 mph - N/A   Mostly Cloudy
1:30 AM 42.8 °F 40.1 °F 41.0 °F 93% 30.24 in 6.2 mi SW 4.6 mph - N/A   Mostly Cloudy
2:00 AM 42.8 °F 38.6 °F 41.0 °F 93% 30.21 in 6.2 mi WSW 6.9 mph - N/A   Mostly Cloudy
2:30 AM 42.8 °F 39.3 °F 41.0 °F 93% 30.21 in 6.2 mi SSW 5.8 mph - N/A   Mostly Cloudy
3:00 AM 44.6 °F 40.7 °F 41.0 °F 87% 30.21 in 6.2 mi SSW 6.9 mph - N/A   Mostly Cloudy
3:30 AM 44.6 °F 39.7 °F 41.0 °F 87% 30.18 in 6.2 mi SSW 9.2 mph - N/A   Mostly Cloudy
4:00 AM 44.6 °F 40.7 °F 41.0 °F 87% 30.18 in 6.2 mi SW 6.9 mph - N/A   Mostly Cloudy
4:30 AM 44.6 °F 41.4 °F 42.8 °F 93% 30.15 in 6.2 mi WSW 5.8 mph - N/A   Mostly Cloudy
5:00 AM 44.6 °F 41.4 °F 42.8 °F 93% 30.15 in 6.2 mi WSW 5.8 mph - N/A   Mostly Cloudy
5:30 AM 42.8 °F 39.3 °F 41.0 °F 93% 30.15 in 6.2 mi SW 5.8 mph - N/A   Mostly Cloudy
6:00 AM 43 °F - 42 °F 92% 30.16 in 9 mi ESE 2.2 mph - -   Scattered Clouds
6:00 AM 42.8 °F - 41.0 °F 93% 30.15 in 6.2 mi ESE 1.2 mph - N/A   Mostly Cloudy
6:30 AM 42.8 °F 41.1 °F 41.0 °F 93% 30.12 in 6.2 mi South 3.5 mph - N/A   Mostly Cloudy
7:00 AM 42.8 °F - 42.8 °F 100% 30.12 in 6.2 mi SSE 2.3 mph - N/A   Mostly Cloudy
7:30 AM 42.8 °F 41.1 °F 41.0 °F 93% 30.12 in 6.2 mi SE 3.5 mph - N/A   Mostly Cloudy
8:00 AM 41.0 °F 37.1 °F 41.0 °F 100% 30.12 in 6.2 mi SE 5.8 mph - N/A   Mostly Cloudy
8:30 AM 42.8 °F 38.6 °F 41.0 °F 93% 30.12 in 6.2 mi ESE 6.9 mph - N/A   Mostly Cloudy
9:00 AM 42.8 °F 38.0 °F 41.0 °F 93% 30.09 in 6.2 mi ESE 8.1 mph - N/A   Mostly Cloudy
9:30 AM 41.0 °F 36.4 °F 41.0 °F 100% 30.09 in 6.2 mi ESE 6.9 mph - N/A   Mostly Cloudy
10:00 AM 42.8 °F 39.3 °F 41.0 °F 93% 30.09 in 6.2 mi SE 5.8 mph - N/A   Mostly Cloudy
10:30 AM 44.6 °F 42.2 °F 42.8 °F 93% 30.09 in 6.2 mi SE 4.6 mph - N/A   Mostly Cloudy
11:00 AM 44.6 °F 42.2 °F 42.8 °F 93% 30.06 in 6.2 mi ESE 4.6 mph - N/A   Mostly Cloudy
11:30 AM 46.4 °F 43.5 °F 44.6 °F 93% 30.06 in 5.0 mi SE 5.8 mph - N/A   Light Drizzle
12:00 PM 47 °F - 44 °F 87% 30.07 in 9 mi SE 6.7 mph - - Rain Light Drizzle
12:00 PM 46.4 °F 42.9 °F 44.6 °F 93% 30.06 in 6.2 mi SE 6.9 mph - N/A   Mostly Cloudy
12:30 PM 46.4 °F 42.9 °F 44.6 °F 93% 30.04 in 6.2 mi ESE 6.9 mph - N/A   Mostly Cloudy
1:00 PM 46.4 °F 41.9 °F 44.6 °F 93% 30.04 in 6.2 mi ESE 9.2 mph - N/A   Mostly Cloudy
1:30 PM 46.4 °F 41.9 °F 44.6 °F 93% 30.01 in 6.2 mi ESE 9.2 mph - N/A   Mostly Cloudy
2:00 PM 48.2 °F - 44.6 °F 87% 30.01 in 6.2 mi ESE 9.2 mph - N/A   Mostly Cloudy
2:30 PM 48.2 °F - 44.6 °F 87% 29.98 in 6.2 mi ESE 8.1 mph - N/A   Mostly Cloudy
3:00 PM 48.2 °F - 44.6 °F 87% 29.98 in 6.2 mi SSE 8.1 mph - N/A   Mostly Cloudy
3:30 PM 48.2 °F - 44.6 °F 87% 29.95 in 6.2 mi SSE 9.2 mph - N/A   Mostly Cloudy
4:00 PM 48.2 °F - 46.4 °F 93% 29.92 in 3.1 mi SSE 11.5 mph - N/A   Light Drizzle
4:30 PM 46.4 °F 41.9 °F 46.4 °F 100% 29.92 in 6.2 mi SSE 9.2 mph - N/A   Mostly Cloudy
5:00 PM 46.4 °F 42.4 °F 44.6 °F 93% 29.89 in 6.2 mi SSE 8.1 mph - N/A   Mostly Cloudy
5:30 PM 48.2 °F - 46.4 °F 93% 29.89 in 6.2 mi SSE 10.4 mph - N/A   Mostly Cloudy
6:00 PM 47 °F - 45 °F 92% 29.88 in 6 mi SE 8.9 mph - - Rain Light Rain
6:00 PM 48.2 °F - 44.6 °F 87% 29.86 in 6.2 mi SE 9.2 mph - N/A Rain Light Rain
6:30 PM 46.4 °F 41.5 °F 46.4 °F 100% 29.86 in 6.2 mi SE 10.4 mph - N/A   Mostly Cloudy
7:00 PM 46.4 °F 41.9 °F 46.4 °F 100% 29.83 in 6.2 mi ESE 9.2 mph - N/A Rain Light Rain
7:30 PM 46.4 °F 41.1 °F 46.4 °F 100% 29.80 in 6.2 mi ESE 11.5 mph - N/A   Mostly Cloudy
8:00 PM 46.4 °F 41.1 °F 46.4 °F 100% 29.77 in 6.2 mi ESE 11.5 mph - N/A   Mostly Cloudy
8:30 PM 46.4 °F 41.1 °F 46.4 °F 100% 29.77 in 6.2 mi ESE 11.5 mph - N/A   Mostly Cloudy
9:00 PM 46.4 °F 41.5 °F 46.4 °F 100% 29.74 in 6.2 mi ESE 10.4 mph - N/A Rain Light Rain
9:30 PM 46.4 °F 41.5 °F 46.4 °F 100% 29.71 in 3.1 mi SE 10.4 mph - N/A Rain Light Rain
10:00 PM 46.4 °F 41.9 °F 46.4 °F 100% 29.68 in 3.1 mi SE 9.2 mph - N/A Rain Light Rain
10:30 PM 46.4 °F 41.9 °F 46.4 °F 100% 29.68 in 3.7 mi SE 9.2 mph - N/A Rain Light Rain
11:00 PM 46.4 °F 41.9 °F 46.4 °F 100% 29.65 in 2.5 mi SE 9.2 mph - N/A Rain Light Rain
11:30 PM 46.4 °F 41.9 °F 46.4 °F 100% 29.62 in 2.5 mi SE 9.2 mph - N/A Rain Light Rain